| time (UTC) | temp F | wind direction | speed knots | gust knots | rain 1hr in | rain 24hr in | rain mn in | humidity % | barometer mb |
| 20260503195728 | 85 | 63 | 1.7 | 1.7 | 0.00 | 0.00 | 0.00 | 38 | 1003.7 |
| 20260503195227 | 85 | 324 | 1.7 | 2.6 | 0.00 | 0.00 | 0.00 | 40 | 1004.1 |
| 20260503194726 | 84 | 153 | 1.7 | 3.5 | 0.00 | 0.00 | 0.00 | 40 | 1003.7 |
| 20260503194225 | 84 | 252 | 0.9 | 1.7 | 0.00 | 0.00 | 0.00 | 41 | 1004.1 |
| 20260503193724 | 83 | 351 | 1.7 | 4.3 | 0.00 | 0.00 | 0.00 | 41 | 1004.1 |
| 20260503193221 | 82 | 297 | 2.6 | 3.5 | 0.00 | 0.00 | 0.00 | 43 | 1004.1 |
| 20260503192720 | 82 | 216 | 1.7 | 3.5 | 0.00 | 0.00 | 0.00 | 43 | 1004.4 |
| 20260503192219 | 82 | 0 | 1.7 | 1.7 | 0.00 | 0.00 | 0.00 | 41 | 1004.4 |
| 20260503191718 | 82 | 99 | 1.7 | 2.6 | 0.00 | 0.00 | 0.00 | 42 | 1004.4 |
| 20260503191217 | 81 | 234 | 2.6 | 2.6 | 0.00 | 0.00 | 0.00 | 44 | 1004.4 |
| 20260503190715 | 81 | 162 | 1.7 | 1.7 | 0.00 | 0.00 | 0.00 | 44 | 1004.4 |
| 20260503190214 | 80 | 225 | 1.7 | 1.7 | 0.00 | 0.00 | 0.00 | 44 | 1004.4 |
| 20260503185713 | 81 | 27 | 0.9 | 2.6 | 0.00 | 0.00 | 0.00 | 44 | 1004.7 |
| 20260503184710 | 80 | 342 | 0.9 | 1.7 | 0.00 | 0.00 | 0.00 | 45 | 1004.7 |
| 20260503184209 | 79 | 342 | 0.9 | 3.5 | 0.00 | 0.00 | 0.00 | 44 | 1004.7 |
| 20260503183708 | 78 | 288 | 1.7 | 1.7 | 0.00 | 0.00 | 0.00 | 45 | 1004.7 |
| 20260503183206 | 78 | 72 | 1.7 | 1.7 | 0.00 | 0.00 | 0.00 | 45 | 1005.1 |
| 20260503182705 | 77 | 252 | 2.6 | 3.5 | 0.00 | 0.00 | 0.00 | 46 | 1005.1 |
| 20260503182204 | 78 | 9 | 1.7 | 3.5 | 0.00 | 0.00 | 0.00 | 47 | 1005.1 |
| 20260503181703 | 78 | 198 | 1.7 | 4.3 | 0.00 | 0.00 | 0.00 | 46 | 1005.1 |
| 20260503181202 | 77 | 54 | 1.7 | 3.5 | 0.00 | 0.00 | 0.00 | 48 | 1005.1 |
| 20260503180701 | 77 | 243 | 0.9 | 1.7 | 0.00 | 0.00 | 0.00 | 49 | 1005.1 |
| 20260503180200 | 76 | 144 | 1.7 | 1.7 | 0.00 | 0.00 | 0.00 | 49 | 1005.1 |
| 20260503175658 | 76 | 207 | 1.7 | 3.5 | 0.00 | 0.00 | 0.00 | 50 | 1005.4 |
| 20260503175157 | 75 | 333 | 1.7 | 3.5 | 0.00 | 0.00 | 0.00 | 49 | 1005.4 |
| 20260503174656 | 75 | 18 | 1.7 | 6.1 | 0.00 | 0.00 | 0.00 | 51 | 1005.8 |
| 20260503174155 | 75 | 153 | 1.7 | 1.7 | 0.00 | 0.00 | 0.00 | 52 | 1005.8 |
| 20260503173653 | 75 | 351 | 0.9 | 2.6 | 0.00 | 0.00 | 0.00 | 52 | 1005.8 |
| 20260503173152 | 74 | 72 | 1.7 | 3.5 | 0.00 | 0.00 | 0.00 | 51 | 1005.4 |
| 20260503172651 | 74 | 18 | 0.9 | 1.7 | 0.00 | 0.00 | 0.00 | 54 | 1005.4 |
| 20260503172150 | 74 | 54 | 1.7 | 2.6 | 0.00 | 0.00 | 0.00 | 54 | 1005.8 |
| 20260503171649 | 73 | 135 | 0.9 | 1.7 | 0.00 | 0.00 | 0.00 | 57 | 1005.8 |
| 20260503171147 | 72 | 279 | 1.7 | 3.5 | 0.00 | 0.00 | 0.00 | 57 | 1005.8 |
| 20260503170646 | 72 | 234 | 1.7 | 3.5 | 0.00 | 0.00 | 0.00 | 55 | 1005.8 |
| 20260503170145 | 72 | 108 | 1.7 | 1.7 | 0.00 | 0.00 | 0.00 | 56 | 1005.8 |
| 20260503160130 | 67 | 54 | 0.9 | 1.7 | 0.00 | 0.00 | 0.00 | 67 | 1006.1 |
| 20260503150617 | 61 | 306 | 0.9 | 0.9 | 0.00 | 0.00 | 0.00 | 79 | 1006.4 |
| 20260503150116 | 61 | 315 | 0.9 | 0.9 | 0.00 | 0.00 | 0.00 | 79 | 1006.4 |
| 20260503131049 | 52 | 63 | 0.0 | 0.0 | 0.00 | 0.00 | 0.00 | 92 | 1005.8 |
| 20260503130547 | 52 | 198 | 0.0 | 0.0 | 0.00 | 0.00 | 0.00 | 92 | 1005.8 |
| 20260503110518 | 53 | 144 | 0.0 | 0.0 | 0.00 | 0.00 | 0.00 | 91 | 1006.1 |
| 20260503090443 | 55 | 9 | 0.0 | 0.9 | 0.00 | 0.00 | 0.00 | 89 | 1006.4 |
| 20260503081430 | 56 | 36 | 0.0 | 0.0 | 0.00 | 0.00 | 0.00 | 86 | 1006.4 |
| 20260503080929 | 56 | 198 | 0.0 | 0.0 | 0.00 | 0.00 | 0.00 | 86 | 1006.4 |
| 20260503080428 | 56 | 306 | 0.0 | 0.0 | 0.00 | 0.00 | 0.00 | 87 | 1006.4 |
| 20260503072920 | 57 | 99 | 0.0 | 0.0 | 0.00 | 0.00 | 0.00 | 86 | 1006.4 |
| 20260503072418 | 57 | 81 | 0.0 | 0.0 | 0.00 | 0.00 | 0.00 | 85 | 1006.4 |
| 20260503071917 | 57 | 99 | 0.0 | 0.0 | 0.00 | 0.00 | 0.00 | 85 | 1006.4 |
| 20260503071416 | 57 | 315 | 0.0 | 0.0 | 0.00 | 0.00 | 0.00 | 85 | 1006.4 |
| 20260503070915 | 58 | 234 | 0.0 | 0.0 | 0.00 | 0.00 | 0.00 | 85 | 1006.8 |
| 20260503070413 | 58 | 36 | 0.0 | 0.0 | 0.00 | 0.00 | 0.00 | 84 | 1006.4 |
| 20260503054855 | 61 | 225 | 0.0 | 0.0 | 0.00 | 0.00 | 0.00 | 78 | 1006.4 |
| 20260503054354 | 61 | 261 | 0.0 | 0.9 | 0.00 | 0.00 | 0.00 | 78 | 1006.4 |
| 20260503053853 | 61 | 216 | 0.0 | 0.0 | 0.00 | 0.00 | 0.00 | 77 | 1006.4 |
| 20260503053352 | 61 | 36 | 0.0 | 1.7 | 0.00 | 0.00 | 0.00 | 77 | 1006.4 |
| 20260503052851 | 61 | 126 | 0.0 | 0.9 | 0.00 | 0.00 | 0.00 | 77 | 1006.4 |
| 20260503052349 | 61 | 27 | 0.9 | 0.9 | 0.00 | 0.00 | 0.00 | 77 | 1006.4 |
| 20260503051848 | 61 | 81 | 0.0 | 0.9 | 0.00 | 0.00 | 0.00 | 77 | 1006.4 |
| 20260503051347 | 62 | 270 | 0.0 | 0.0 | 0.00 | 0.00 | 0.00 | 76 | 1006.4 |
| 20260503050846 | 62 | 270 | 0.0 | 0.0 | 0.00 | 0.00 | 0.00 | 76 | 1006.4 |
| 20260503050344 | 62 | 234 | 0.9 | 1.7 | 0.00 | 0.00 | 0.00 | 76 | 1006.1 |
| 20260503045843 | 62 | 171 | 0.0 | 0.9 | 0.00 | 0.00 | 0.00 | 76 | 1006.1 |
| 20260503045342 | 62 | 63 | 0.9 | 1.7 | 0.00 | 0.00 | 0.00 | 75 | 1006.1 |
| 20260503044841 | 62 | 27 | 0.9 | 1.7 | 0.00 | 0.00 | 0.00 | 75 | 1006.8 |
| 20260503043838 | 62 | 333 | 0.0 | 0.9 | 0.00 | 0.00 | 0.00 | 75 | 1006.4 |
| 20260503043337 | 62 | 72 | 0.9 | 1.7 | 0.00 | 0.00 | 0.00 | 76 | 1006.4 |
| 20260503042836 | 62 | 261 | 0.0 | 0.0 | 0.00 | 0.00 | 0.00 | 76 | 1006.4 |
| 20260503042335 | 62 | 135 | 0.0 | 0.9 | 0.00 | 0.00 | 0.00 | 75 | 1006.4 |
| 20260503041834 | 62 | 153 | 0.0 | 0.9 | 0.00 | 0.00 | 0.00 | 75 | 1006.4 |
| 20260503041332 | 62 | 189 | 0.0 | 0.0 | 0.00 | 0.00 | 0.00 | 75 | 1006.4 |
| 20260503040831 | 63 | 216 | 0.0 | 0.9 | 0.00 | 0.00 | 0.00 | 74 | 1006.1 |
| 20260503040330 | 63 | 54 | 0.9 | 0.9 | 0.00 | 0.00 | 0.00 | 74 | 1006.1 |
| 20260503035829 | 63 | 135 | 0.0 | 0.0 | 0.00 | 0.00 | 0.00 | 73 | 1006.4 |
| 20260503035327 | 64 | 144 | 0.9 | 0.9 | 0.00 | 0.00 | 0.00 | 72 | 1006.4 |
| 20260503034826 | 64 | 27 | 0.0 | 0.0 | 0.00 | 0.00 | 0.00 | 72 | 1006.4 |
| 20260503034325 | 64 | 90 | 0.0 | 0.9 | 0.00 | 0.00 | 0.00 | 71 | 1006.4 |
| 20260503033824 | 64 | 198 | 0.0 | 1.7 | 0.00 | 0.00 | 0.00 | 71 | 1006.4 |
| 20260503033323 | 64 | 216 | 0.0 | 0.0 | 0.00 | 0.00 | 0.00 | 71 | 1006.4 |
| 20260503032821 | 64 | 207 | 1.7 | 2.6 | 0.00 | 0.00 | 0.00 | 71 | 1006.1 |
| 20260503032320 | 64 | 99 | 0.0 | 0.9 | 0.00 | 0.00 | 0.00 | 70 | 1006.1 |
| 20260503031819 | 64 | 117 | 1.7 | 2.6 | 0.00 | 0.00 | 0.00 | 70 | 1006.1 |
| 20260503031317 | 65 | 252 | 0.9 | 0.0 | 0.00 | 0.00 | 0.00 | 70 | 1005.8 |
| 20260503030816 | 65 | 270 | 0.0 | 0.0 | 0.00 | 0.00 | 0.00 | 69 | 1006.1 |
| 20260503030315 | 65 | 63 | 0.0 | 0.0 | 0.00 | 0.00 | 0.00 | 69 | 1006.1 |
| 20260503025814 | 65 | 90 | 0.0 | 0.9 | 0.00 | 0.00 | 0.00 | 68 | 1005.8 |
| 20260503025313 | 66 | 144 | 0.0 | 0.9 | 0.00 | 0.00 | 0.00 | 68 | 1006.1 |
| 20260503024812 | 66 | 81 | 0.0 | 0.9 | 0.00 | 0.00 | 0.00 | 67 | 1006.4 |
| 20260503024310 | 66 | 36 | 0.0 | 0.0 | 0.00 | 0.00 | 0.00 | 67 | 1006.1 |
| 20260503023809 | 66 | 45 | 0.0 | 0.0 | 0.00 | 0.00 | 0.00 | 67 | 1006.4 |
| 20260503023308 | 66 | 72 | 1.7 | 0.9 | 0.00 | 0.00 | 0.00 | 67 | 1006.4 |
| 20260503022807 | 66 | 27 | 0.9 | 6.1 | 0.00 | 0.00 | 0.00 | 66 | 1006.4 |
| 20260503022305 | 66 | 342 | 0.9 | 3.5 | 0.00 | 0.00 | 0.00 | 66 | 1006.4 |
| 20260503021804 | 66 | 153 | 0.9 | 2.6 | 0.00 | 0.00 | 0.00 | 66 | 1006.1 |
| 20260503021303 | 66 | 0 | 2.6 | 6.1 | 0.00 | 0.00 | 0.00 | 66 | 1006.1 |
| 20260503020802 | 67 | 198 | 6.1 | 7.0 | 0.00 | 0.00 | 0.00 | 64 | 1006.4 |
| 20260503020301 | 69 | 189 | 0.9 | 1.7 | 0.00 | 0.00 | 0.00 | 62 | 1006.1 |
| 20260503015759 | 70 | 99 | 0.9 | 0.9 | 0.00 | 0.00 | 0.00 | 61 | 1005.8 |
| 20260503015258 | 70 | 153 | 0.0 | 1.7 | 0.00 | 0.00 | 0.00 | 61 | 1005.8 |
| 20260503014757 | 70 | 234 | 0.9 | 1.7 | 0.00 | 0.00 | 0.00 | 60 | 1005.4 |
| 20260503014256 | 70 | 261 | 0.0 | 0.0 | 0.00 | 0.00 | 0.00 | 60 | 1005.4 |
| 20260503013754 | 70 | 135 | 0.0 | 1.7 | 0.00 | 0.00 | 0.00 | 59 | 1005.1 |
| 20260503013253 | 71 | 261 | 0.9 | 1.7 | 0.00 | 0.00 | 0.00 | 59 | 1005.4 |
| 20260503012752 | 71 | 153 | 0.0 | 0.9 | 0.00 | 0.00 | 0.00 | 58 | 1005.4 |
| 20260503012251 | 71 | 297 | 0.9 | 0.9 | 0.00 | 0.00 | 0.00 | 57 | 1005.4 |
| 20260503011749 | 71 | 180 | 0.0 | 0.0 | 0.00 | 0.00 | 0.00 | 58 | 1005.4 |
| 20260503011248 | 71 | 45 | 0.9 | 0.9 | 0.00 | 0.00 | 0.00 | 57 | 1005.1 |
| 20260503010747 | 72 | 27 | 0.9 | 0.9 | 0.00 | 0.00 | 0.00 | 56 | 1005.4 |
| 20260503010246 | 73 | 9 | 0.9 | 0.9 | 0.00 | 0.00 | 0.00 | 54 | 1005.1 |
| 20260503005744 | 73 | 54 | 0.9 | 1.7 | 0.00 | 0.00 | 0.00 | 53 | 1005.1 |
| 20260503005243 | 74 | 297 | 0.9 | 1.7 | 0.00 | 0.00 | 0.00 | 53 | 1005.1 |
| 20260503004742 | 74 | 63 | 0.9 | 1.7 | 0.00 | 0.00 | 0.00 | 54 | 1005.1 |
| 20260503004241 | 74 | 306 | 0.0 | 1.7 | 0.00 | 0.00 | 0.00 | 52 | 1005.1 |
| 20260503003740 | 73 | 144 | 0.0 | 1.7 | 0.00 | 0.00 | 0.00 | 52 | 1005.1 |
| 20260503003238 | 73 | 288 | 0.9 | 0.9 | 0.00 | 0.00 | 0.00 | 51 | 1005.1 |
| 20260503002737 | 73 | 144 | 0.9 | 2.6 | 0.00 | 0.00 | 0.00 | 52 | 1005.1 |
| 20260503002236 | 74 | 9 | 1.7 | 1.7 | 0.00 | 0.00 | 0.00 | 51 | 1005.4 |
| 20260503001735 | 74 | 225 | 0.9 | 1.7 | 0.00 | 0.00 | 0.00 | 50 | 1005.1 |
| 20260503001234 | 74 | 108 | 1.7 | 1.7 | 0.00 | 0.00 | 0.00 | 51 | 1005.1 |
| 20260503000732 | 73 | 27 | 0.9 | 1.7 | 0.00 | 0.00 | 0.00 | 52 | 1005.1 |
| 20260503000233 | 72 | 252 | 1.7 | 1.7 | 0.00 | 0.00 | 0.00 | 53 | 1005.1 |
| 20260502235730 | 72 | 81 | 3.5 | 6.1 | 0.00 | 0.00 | 0.00 | 53 | 1005.4 |
| 20260502235229 | 72 | 108 | 2.6 | 5.2 | 0.00 | 0.00 | 0.00 | 52 | 1005.1 |
| 20260502234728 | 71 | 27 | 2.6 | 5.2 | 0.00 | 0.00 | 0.00 | 53 | 1005.4 |
| 20260502234226 | 71 | 351 | 1.7 | 0.9 | 0.00 | 0.00 | 0.00 | 52 | 1005.4 |
| 20260502233725 | 72 | 153 | 0.9 | 1.7 | 0.00 | 0.00 | 0.00 | 53 | 1005.4 |
| 20260502233224 | 71 | 198 | 1.7 | 3.5 | 0.00 | 0.00 | 0.00 | 53 | 1005.8 |
| 20260502232723 | 72 | 216 | 2.6 | 5.2 | 0.00 | 0.00 | 0.00 | 53 | 1005.8 |
| 20260502232222 | 70 | 81 | 2.6 | 3.5 | 0.00 | 0.00 | 0.00 | 53 | 1005.8 |
| 20260502231720 | 72 | 351 | 0.9 | 1.7 | 0.00 | 0.00 | 0.00 | 52 | 1005.8 |
| 20260502231219 | 72 | 135 | 0.9 | 5.2 | 0.00 | 0.00 | 0.00 | 52 | 1005.8 |
| 20260502230718 | 70 | 333 | 0.9 | 1.7 | 0.00 | 0.00 | 0.00 | 55 | 1005.8 |
| 20260502230217 | 70 | 171 | 1.7 | 3.5 | 0.00 | 0.00 | 0.00 | 53 | 1005.8 |
| 20260502225716 | 70 | 162 | 1.7 | 1.7 | 0.00 | 0.00 | 0.00 | 55 | 1005.8 |
| 20260502225214 | 70 | 234 | 0.9 | 2.6 | 0.00 | 0.00 | 0.00 | 55 | 1006.1 |
| 20260502224713 | 70 | 342 | 0.9 | 1.7 | 0.00 | 0.00 | 0.00 | 53 | 1006.4 |
| 20260502224212 | 70 | 108 | 1.7 | 3.5 | 0.00 | 0.00 | 0.00 | 55 | 1006.4 |
| 20260502223711 | 70 | 297 | 0.9 | 3.5 | 0.00 | 0.00 | 0.00 | 56 | 1006.4 |
| 20260502223209 | 69 | 180 | 1.7 | 1.7 | 0.00 | 0.00 | 0.00 | 55 | 1006.4 |
| 20260502222708 | 69 | 288 | 2.6 | 2.6 | 0.00 | 0.00 | 0.00 | 55 | 1006.8 |
| 20260502222207 | 69 | 288 | 0.9 | 0.9 | 0.00 | 0.00 | 0.00 | 57 | 1006.8 |
| 20260502221706 | 69 | 243 | 1.7 | 1.7 | 0.00 | 0.00 | 0.00 | 55 | 1006.8 |
| 20260502221205 | 69 | 234 | 0.9 | 1.7 | 0.00 | 0.00 | 0.00 | 56 | 1006.8 |
| 20260502220703 | 68 | 225 | 1.7 | 2.6 | 0.00 | 0.00 | 0.00 | 57 | 1006.8 |
| 20260502220202 | 69 | 81 | 1.7 | 3.5 | 0.00 | 0.00 | 0.00 | 57 | 1006.8 |
| 20260502215701 | 69 | 90 | 1.7 | 3.5 | 0.00 | 0.00 | 0.00 | 55 | 1007.1 |
| 20260502215200 | 68 | 315 | 2.6 | 3.5 | 0.00 | 0.00 | 0.00 | 55 | 1007.1 |
| 20260502214658 | 67 | 54 | 1.7 | 0.9 | 0.00 | 0.00 | 0.00 | 58 | 1007.1 |
| 20260502214157 | 68 | 171 | 0.9 | 3.5 | 0.00 | 0.00 | 0.00 | 58 | 1007.1 |
| 20260502213656 | 67 | 63 | 0.9 | 1.7 | 0.00 | 0.00 | 0.00 | 60 | 1007.5 |
| 20260502213155 | 66 | 216 | 0.9 | 0.0 | 0.00 | 0.00 | 0.00 | 60 | 1007.5 |
| 20260502212654 | 68 | 18 | 1.7 | 2.6 | 0.00 | 0.00 | 0.00 | 56 | 1007.5 |
| 20260502212152 | 68 | 324 | 0.0 | 0.9 | 0.00 | 0.00 | 0.00 | 55 | 1007.5 |
| 20260502211651 | 67 | 36 | 1.7 | 0.9 | 0.00 | 0.00 | 0.00 | 58 | 1007.8 |
| 20260502211150 | 66 | 162 | 0.9 | 1.7 | 0.00 | 0.00 | 0.00 | 58 | 1007.8 |
| 20260502210648 | 67 | 189 | 1.7 | 2.6 | 0.00 | 0.00 | 0.00 | 59 | 1007.5 |
| 20260502210147 | 66 | 315 | 1.7 | 3.5 | 0.00 | 0.00 | 0.00 | 59 | 1007.8 |
| 20260502205646 | 66 | 99 | 0.9 | 0.9 | 0.00 | 0.00 | 0.00 | 60 | 1007.8 |
| 20260502205145 | 65 | 171 | 2.6 | 3.5 | 0.00 | 0.00 | 0.00 | 60 | 1008.1 |
| 20260502204644 | 64 | 297 | 0.9 | 1.7 | 0.00 | 0.00 | 0.00 | 63 | 1008.5 |
| 20260502204143 | 65 | 225 | 0.9 | 1.7 | 0.00 | 0.00 | 0.00 | 60 | 1008.5 |
| 20260502203642 | 65 | 135 | 1.7 | 1.7 | 0.00 | 0.00 | 0.00 | 60 | 1008.5 |
| 20260502203140 | 64 | 117 | 1.7 | 1.7 | 0.00 | 0.00 | 0.00 | 61 | 1008.5 |
| 20260502202639 | 64 | 54 | 2.6 | 3.5 | 0.00 | 0.00 | 0.00 | 62 | 1008.5 |
| 20260502202138 | 65 | 270 | 1.7 | 2.6 | 0.00 | 0.00 | 0.00 | 60 | 1008.5 |
| 20260502201636 | 65 | 351 | 0.9 | 1.7 | 0.00 | 0.00 | 0.00 | 61 | 1008.5 |
| 20260502201135 | 64 | 324 | 0.9 | 0.9 | 0.00 | 0.00 | 0.00 | 63 | 1008.8 |
| 20260502200634 | 62 | 324 | 0.9 | 2.6 | 0.00 | 0.00 | 0.00 | 63 | 1008.8 |
| 20260502200133 | 62 | 27 | 1.7 | 3.5 | 0.00 | 0.00 | 0.00 | 64 | 1008.8 |